Flag for New Zealand Weather past 2 weeks in Auckland, New Zealand

Now
73 °F

More clouds than sun.


Feels Like: 75 °F
Forecast: 64 / 70 °F
Wind: 8 mph from Northwest

Location: Auckland Airport

Current Time: Mar 27, 2015 at 5:38:07 PM

Latest Report: Mar 27, 2015 at 5:00 PM


Visibility: N/A

Pressure: 29.95 "Hg

Humidity: 74%

Dew point: 64 °F

Location of AucklandLocation

Historic Weather in Auckland — Graph

°F

Auckland temperature yesterday

Maximum temperature yesterday: 73 °F (at 12:00 PM)
Minimum temperature yesterday: 61 °F (at 7:30 AM)
Average temperature yesterday: 66 °F

Past Weeks' High & Low Weather Summary

 TemperatureHumidityPressure
High82 °F (Mar 14, 3:00 PM)100% (Mar 13, 7:30 AM)30.30 "Hg (Mar 13, 7:30 AM)
Low54 °F (Mar 20, 6:30 AM)47% (Mar 23, 2:00 PM)29.21 "Hg (Mar 16, 5:30 AM)
Average66 °F78%29.92 "Hg
* Reported Mar 12 3:00 PM — Mar 27 3:30 PM, Auckland, Weather by CustomWeather, © 2015

Note: Actual official high and low records may vary slightly from our data, if they occured in-between our weather recording intervals... More about our weather records

Advertising

Auckland weather history for previous 24 hours

 ConditionsComfort  
Time TempWeatherWind HumidityBarometerVisibility
3:30 PM
Fri, Mar 27
75 °FPartly sunny.6 mph65%29.95 "HgN/A
3:00 PM73 °FMostly cloudy.7 mph65%29.95 "HgN/A
2:30 PM72 °FOvercast.7 mph78%29.98 "HgN/A
2:00 PM73 °FPartly sunny.3 mph69%29.98 "HgN/A
1:30 PM73 °FMild.3 mph74%29.98 "HgN/A
1:00 PM72 °FMild.5 mph78%29.98 "HgN/A
12:30 PM72 °FScattered clouds.3 mph73%29.98 "HgN/A
12:00 PM70 °FMild.3 mph78%30.01 "HgN/A
11:30 AM68 °FMild.3 mph83%30.01 "HgN/A
11:00 AM66 °FMild.2 mph88%30.01 "HgN/A
10:00 AM63 °FScattered clouds.2 mph100%30.01 "HgN/A
9:30 AM63 °FLow clouds.3 mph100%30.01 "Hg4 mi
9:00 AM63 °FLow clouds.2 mph100%30.01 "Hg1 mi
8:30 AM61 °FFog.5 mph100%30.01 "Hg0 mi
8:00 AM63 °FFog.3 mph100%29.98 "Hg1 mi
7:30 AM63 °FLow clouds.5 mph100%29.98 "Hg5 mi
7:00 AM63 °FLow clouds.3 mph100%29.98 "HgN/A
6:30 AM63 °FLow clouds.3 mph100%29.98 "HgN/A
6:00 AM63 °FPassing clouds.5 mph100%29.95 "HgN/A
5:30 AM63 °FPassing clouds.6 mph100%29.95 "HgN/A
5:00 AM63 °FPartly cloudy.5 mph100%29.95 "HgN/A
4:30 AM64 °FPassing clouds.6 mph94%29.95 "HgN/A
4:00 AM63 °FPassing clouds.2 mph100%29.95 "HgN/A
3:30 AM63 °FPassing clouds.2 mph100%29.95 "HgN/A
3:00 AM63 °FMild.2 mph100%29.95 "HgN/A
2:30 AM63 °FMild.3 mph100%29.98 "HgN/A
2:00 AM63 °FMild.5 mph100%29.98 "HgN/A
1:30 AM64 °FPartly cloudy.3 mph100%29.98 "HgN/A
1:00 AM64 °FSprinkles. Passing clouds.3 mph100%29.98 "Hg3 mi
12:30 AM64 °FDrizzle. Fog.6 mph100%29.98 "Hg2 mi
12:00 AM64 °FOvercast.8 mph100%29.98 "HgN/A
11:30 PM
Thu, Mar 26
64 °FFog.7 mph100%29.98 "Hg2 mi
11:00 PM63 °FLight rain. Passing clouds.12 mph100%29.98 "Hg6 mi
10:30 PM63 °FPartly cloudy.10 mph100%30.01 "Hg6 mi
10:00 PM63 °FDrizzle. Mostly cloudy.7 mph100%30.01 "Hg3 mi
9:30 PM63 °FLight rain. Mostly cloudy.7 mph100%30.01 "Hg3 mi
9:00 PM64 °FRain showers. Passing clouds.5 mph94%30.01 "Hg3 mi
8:30 PM64 °FSprinkles. Partly cloudy.6 mph100%30.01 "HgN/A
8:00 PM64 °FLight rain. Overcast.8 mph94%30.01 "Hg4 mi
7:30 PM64 °FLight rain. Overcast.7 mph94%30.01 "Hg4 mi
7:00 PM64 °FSprinkles. Cloudy.5 mph94%30.01 "Hg3 mi
6:30 PM64 °FDrizzle. Mostly cloudy.7 mph94%30.01 "HgN/A
6:00 PM64 °FSprinkles. Partly sunny.7 mph94%30.01 "Hg6 mi
5:30 PM66 °FRain showers. Broken clouds.8 mph88%30.01 "Hg3 mi
5:00 PM66 °FLight rain. Mostly cloudy.7 mph94%30.01 "HgN/A
Weather by CustomWeather, © 2015

See weather overviewHow to use our weather pages